Location: Schommer Observatory
(40.5200°N, 74.4500°W)
Time: 22:41:41
(UTC-04:00)

ISS - Pass Details

Date: 21 May 2018
Orbit: 402 x 407 km, 51.6° (Epoch: 26 May)

Event Time Altitude Azimuth Distance (km) Brightness Sun altitude
Rises 20:49:10 0° 207° (SSW) 2,305 -0.1 -6.7°
Reaches altitude 10° 20:51:25 10° 194° (SSW) 1,449 -1.2 -7.0°
Maximum altitude 20:54:13 27° 135° (SE) 810 -2.9 -7.5°
Drops below altitude 10° 20:57:02 10° 75° (ENE) 1,455 -1.4 -7.9°
Sets 20:59:18 0° 63° (ENE) 2,318 -0.3 -8.2°
